Погода в Цельтвеге

Австрия     47°11′22″N   14°45′10″E
темп.,
°C
ветер,
м/с
пор.,
м/с
влажн.,
%
обл.,
%
осадки,
мм/ч
давл.,
гПа
погр.,
м
11 мая, вт
вт1123:00+9з23885 0.0 101443
02:00+7зюз33955 0.0 101458
05:00+6зюз34945 0.0 101365
08:00+10зюз247398 0.0 1011152
11:00+18ююз37453 0.0 10091394
14:00+20ююз48432 0.0 10081754
17:00+18ю48395 0.0 10071902
20:00+12ююз22723 0.0 100817
12 мая, ср
ср1223:00+9зсз228220 0.0 100921
02:00+9с1184100 0.0 100718
05:00+8ссв2399100 5.9 1008122
08:00+7ссз2397100 11.8 1009272
11:00+5сз2396100 9.8 1010345
14:00+5зсз2396100 14.0 1010291
17:00+5зсз2396100 2.9 1010463
20:00+5зсз1397100 5.0 1009199
13 мая, чт
чт1323:00+5зсз2397100 0.0 1009220
02:00+5зсз2398100 0.1 1007209
05:00+5зсз1397100 1.4 1006309
08:00+5зсз2397100 1.8 1006469
11:00+6зсз2393100 0.1 1005497
14:00+11зсз2756100 0.4 10031630
17:00+10з2558100 0.2 10031339
20:00+7зсз2280100 0.3 100674
14 мая, пт
пт1423:00+4зсз2290100 0.0 100863
02:00+3зсз2295100 0.0 100837
05:00+3зсз2293100 0.0 100947
08:00+6сз2278100 0.0 1008538
11:00+11с1257100 0.0 10071386
14:00+9с1266100 0.3 1008943
17:00+10вюв1269100 0.4 1008906
20:00+7ссв0189100 0.7 100919
15 мая, сб
сб1523:00+6зсз0196100 2.3 101118
02:00+5зюз1197100 5.1 101243
05:00+5зсз1297100 2.4 101258
08:00+6зсз129095 3.4 1013258
11:00+9ююв2181100 0.6 1012949
14:00+10сз1180100 1.7 1012753
17:00+10юв127894 1.1 1010777
20:00+7вюв119099 2.1 101012